Year,Month,Day,Hour,Minute,Value (Times are PST for temperature in C)
2021,04,16,00,00,8.50
2021,04,16,00,01,8.60
2021,04,16,00,02,8.60
2021,04,16,00,03,8.60
2021,04,16,00,04,8.60
2021,04,16,00,05,8.60
2021,04,16,00,06,8.60
2021,04,16,00,07,8.60
2021,04,16,00,08,8.60
2021,04,16,00,09,8.60
2021,04,16,00,10,8.60
2021,04,16,00,11,8.60
2021,04,16,00,12,8.60
2021,04,16,00,13,8.60
2021,04,16,00,14,8.70
2021,04,16,00,15,8.60
2021,04,16,00,16,8.60
2021,04,16,00,17,8.60
2021,04,16,00,18,8.60
2021,04,16,00,19,8.60
2021,04,16,00,20,8.60
2021,04,16,00,21,8.60
2021,04,16,00,22,8.60
2021,04,16,00,23,8.60
2021,04,16,00,24,8.50
2021,04,16,00,25,8.50
2021,04,16,00,26,8.50
2021,04,16,00,27,8.50
2021,04,16,00,28,8.40
2021,04,16,00,29,8.40
2021,04,16,00,30,8.40
2021,04,16,00,31,8.40
2021,04,16,00,32,8.30
2021,04,16,00,33,8.30
2021,04,16,00,34,8.30
2021,04,16,00,35,8.30
2021,04,16,00,36,8.30
2021,04,16,00,37,8.30
2021,04,16,00,38,8.30
2021,04,16,00,39,8.30
2021,04,16,00,40,8.30
2021,04,16,00,41,8.30
2021,04,16,00,42,8.30
2021,04,16,00,43,8.30
2021,04,16,00,44,8.20
2021,04,16,00,45,8.20
2021,04,16,00,46,8.20
2021,04,16,00,47,8.20
2021,04,16,00,48,8.10
2021,04,16,00,49,8.10
2021,04,16,00,50,8.10
2021,04,16,00,51,8.10
2021,04,16,00,52,8.00
2021,04,16,00,53,8.00
2021,04,16,00,54,8.00
2021,04,16,00,55,8.00
2021,04,16,00,56,7.90
2021,04,16,00,57,7.90
2021,04,16,00,58,7.90
2021,04,16,00,59,7.90
2021,04,16,01,00,7.90
2021,04,16,01,01,7.90
2021,04,16,01,02,7.90
2021,04,16,01,03,7.90
2021,04,16,01,04,7.90
2021,04,16,01,05,7.90
2021,04,16,01,06,7.90
2021,04,16,01,07,7.90
2021,04,16,01,08,7.90
2021,04,16,01,09,7.90
2021,04,16,01,10,7.90
2021,04,16,01,11,7.90
2021,04,16,01,12,7.90
2021,04,16,01,13,7.90
2021,04,16,01,14,7.90
2021,04,16,01,15,7.90
2021,04,16,01,16,7.90
2021,04,16,01,17,7.90
2021,04,16,01,18,7.90
2021,04,16,01,19,8.00
2021,04,16,01,20,8.00
2021,04,16,01,21,8.10
2021,04,16,01,22,8.10
2021,04,16,01,23,8.20
2021,04,16,01,24,8.30
2021,04,16,01,25,8.30
2021,04,16,01,26,8.30
2021,04,16,01,27,8.30
2021,04,16,01,28,8.40
2021,04,16,01,29,8.40
2021,04,16,01,30,8.40
2021,04,16,01,31,8.30
2021,04,16,01,32,8.30
2021,04,16,01,33,8.30
2021,04,16,01,34,8.30
2021,04,16,01,35,8.20
2021,04,16,01,36,8.20
2021,04,16,01,37,8.20
2021,04,16,01,38,8.10
2021,04,16,01,39,8.10
2021,04,16,01,40,8.10
2021,04,16,01,41,8.10
2021,04,16,01,42,8.00
2021,04,16,01,43,8.00
2021,04,16,01,44,8.00
2021,04,16,01,45,8.00
2021,04,16,01,46,8.00
2021,04,16,01,47,8.00
2021,04,16,01,48,8.00
2021,04,16,01,49,8.00
2021,04,16,01,50,8.00
2021,04,16,01,51,8.10
2021,04,16,01,52,8.10
2021,04,16,01,53,8.10
2021,04,16,01,54,8.10
2021,04,16,01,55,8.10
2021,04,16,01,56,8.20
2021,04,16,01,57,8.20
2021,04,16,01,58,8.20
2021,04,16,01,59,8.20
2021,04,16,02,00,8.20
2021,04,16,02,01,8.20
2021,04,16,02,02,8.10
2021,04,16,02,03,8.10
2021,04,16,02,04,8.10
2021,04,16,02,05,8.10
2021,04,16,02,06,8.00
2021,04,16,02,07,8.00
2021,04,16,02,08,7.90
2021,04,16,02,09,7.90
2021,04,16,02,10,7.90
2021,04,16,02,11,7.90
2021,04,16,02,12,7.90
2021,04,16,02,13,7.80
2021,04,16,02,14,7.80
2021,04,16,02,15,7.80
2021,04,16,02,16,7.80
2021,04,16,02,17,7.80
2021,04,16,02,18,7.70
2021,04,16,02,19,7.70
2021,04,16,02,20,7.70
2021,04,16,02,21,7.70
2021,04,16,02,22,7.70
2021,04,16,02,23,7.70
2021,04,16,02,24,7.70
2021,04,16,02,25,7.70
2021,04,16,02,26,7.70
2021,04,16,02,27,7.70
2021,04,16,02,28,7.70
2021,04,16,02,29,7.70
2021,04,16,02,30,7.70
2021,04,16,02,31,7.70
2021,04,16,02,32,7.70
2021,04,16,02,33,7.70
2021,04,16,02,34,7.60
2021,04,16,02,35,7.60
2021,04,16,02,36,7.60
2021,04,16,02,37,7.60
2021,04,16,02,38,7.60
2021,04,16,02,39,7.50
2021,04,16,02,40,7.50
2021,04,16,02,41,7.50
2021,04,16,02,42,7.50
2021,04,16,02,43,7.40
2021,04,16,02,44,7.40
2021,04,16,02,45,7.40
2021,04,16,02,46,7.40
2021,04,16,02,47,7.30
2021,04,16,02,48,7.30
2021,04,16,02,49,7.30
2021,04,16,02,50,7.30
2021,04,16,02,51,7.30
2021,04,16,02,52,7.30
2021,04,16,02,53,7.30
2021,04,16,02,54,7.30
2021,04,16,02,55,7.30
2021,04,16,02,56,7.30
2021,04,16,02,57,7.30
2021,04,16,02,58,7.30
2021,04,16,02,59,7.30
2021,04,16,03,00,7.30
2021,04,16,03,01,7.30
2021,04,16,03,02,7.30
2021,04,16,03,03,7.30
2021,04,16,03,04,7.30
2021,04,16,03,05,7.20
2021,04,16,03,06,7.20
2021,04,16,03,07,7.20
2021,04,16,03,08,7.20
2021,04,16,03,09,7.10
2021,04,16,03,10,7.10
2021,04,16,03,11,7.10
2021,04,16,03,12,7.10
2021,04,16,03,13,7.00
2021,04,16,03,14,7.00
2021,04,16,03,15,6.90
2021,04,16,03,16,6.90
2021,04,16,03,17,6.90
2021,04,16,03,18,6.90
2021,04,16,03,19,6.90
2021,04,16,03,20,6.80
2021,04,16,03,21,6.80
2021,04,16,03,22,6.80
2021,04,16,03,23,6.80
2021,04,16,03,24,6.90
2021,04,16,03,25,6.90
2021,04,16,03,26,6.90
2021,04,16,03,27,7.00
2021,04,16,03,28,7.00
2021,04,16,03,29,7.10
2021,04,16,03,30,7.10
2021,04,16,03,31,7.10
2021,04,16,03,32,7.20
2021,04,16,03,33,7.20
2021,04,16,03,34,7.20
2021,04,16,03,35,7.20
2021,04,16,03,36,7.20
2021,04,16,03,37,7.20
2021,04,16,03,38,7.30
2021,04,16,03,39,7.30
2021,04,16,03,40,7.30
2021,04,16,03,41,7.20
2021,04,16,03,42,7.20
2021,04,16,03,43,7.20
2021,04,16,03,44,7.30
2021,04,16,03,45,7.30
2021,04,16,03,46,7.30
2021,04,16,03,47,7.30
2021,04,16,03,48,7.30
2021,04,16,03,49,7.30
2021,04,16,03,50,7.30
2021,04,16,03,51,7.30
2021,04,16,03,52,7.30
2021,04,16,03,53,7.20
2021,04,16,03,54,7.20
2021,04,16,03,55,7.20
2021,04,16,03,56,7.20
2021,04,16,03,57,7.10
2021,04,16,03,58,7.10
2021,04,16,03,59,7.10
2021,04,16,04,00,7.10
2021,04,16,04,01,7.10
2021,04,16,04,02,7.10
2021,04,16,04,03,7.10
2021,04,16,04,04,7.00
2021,04,16,04,05,7.00
2021,04,16,04,06,7.00
2021,04,16,04,07,7.00
2021,04,16,04,08,6.90
2021,04,16,04,09,6.90
2021,04,16,04,10,6.90
2021,04,16,04,11,6.90
2021,04,16,04,12,6.90
2021,04,16,04,13,6.90
2021,04,16,04,14,6.80
2021,04,16,04,15,6.80
2021,04,16,04,16,6.80
2021,04,16,04,17,6.80
2021,04,16,04,18,6.80
2021,04,16,04,19,6.80
2021,04,16,04,20,6.80
2021,04,16,04,21,6.80
2021,04,16,04,22,6.80
2021,04,16,04,23,6.80
2021,04,16,04,24,6.80
2021,04,16,04,25,6.90
2021,04,16,04,26,6.90
2021,04,16,04,27,6.90
2021,04,16,04,28,6.90
2021,04,16,04,29,6.90
2021,04,16,04,30,7.00
2021,04,16,04,31,7.00
2021,04,16,04,32,7.00
2021,04,16,04,33,7.00
2021,04,16,04,34,7.10
2021,04,16,04,35,7.10
2021,04,16,04,36,7.10
2021,04,16,04,37,7.10
2021,04,16,04,38,7.10
2021,04,16,04,39,7.10
2021,04,16,04,40,7.20
2021,04,16,04,41,7.20
2021,04,16,04,42,7.20
2021,04,16,04,43,7.20
2021,04,16,04,44,7.20
2021,04,16,04,45,7.30
2021,04,16,04,46,7.30
2021,04,16,04,47,7.30
2021,04,16,04,48,7.30
2021,04,16,04,49,7.30
2021,04,16,04,50,7.30
2021,04,16,04,51,7.30
2021,04,16,04,52,7.30
2021,04,16,04,53,7.30
2021,04,16,04,54,7.30
2021,04,16,04,55,7.30
2021,04,16,04,56,7.30
2021,04,16,04,57,7.30
2021,04,16,04,58,7.30
2021,04,16,04,59,7.30
2021,04,16,05,00,7.20
2021,04,16,05,01,7.20
2021,04,16,05,02,7.20
2021,04,16,05,03,7.20
2021,04,16,05,04,7.20
2021,04,16,05,05,7.30
2021,04,16,05,06,7.30
2021,04,16,05,07,7.30
2021,04,16,05,08,7.30
2021,04,16,05,09,7.30
2021,04,16,05,10,7.30
2021,04,16,05,11,7.30
2021,04,16,05,12,7.30
2021,04,16,05,13,7.30
2021,04,16,05,14,7.30
2021,04,16,05,15,7.30
2021,04,16,05,16,7.30
2021,04,16,05,17,7.30
2021,04,16,05,18,7.30
2021,04,16,05,19,7.30
2021,04,16,05,20,7.30
2021,04,16,05,21,7.30
2021,04,16,05,22,7.30
2021,04,16,05,23,7.30
2021,04,16,05,24,7.30
2021,04,16,05,25,7.20
2021,04,16,05,26,7.20
2021,04,16,05,27,7.20
2021,04,16,05,28,7.20
2021,04,16,05,29,7.20
2021,04,16,05,30,7.20
2021,04,16,05,31,7.20
2021,04,16,05,32,7.20
2021,04,16,05,33,7.10
2021,04,16,05,34,7.10
2021,04,16,05,35,7.20
2021,04,16,05,36,7.20
2021,04,16,05,37,7.10
2021,04,16,05,38,7.20
2021,04,16,05,39,7.20
2021,04,16,05,40,7.20
2021,04,16,05,41,7.20
2021,04,16,05,42,7.20
2021,04,16,05,43,7.10
2021,04,16,05,44,7.10
2021,04,16,05,45,7.10
2021,04,16,05,46,7.10
2021,04,16,05,47,7.10
2021,04,16,05,48,7.00
2021,04,16,05,49,7.00
2021,04,16,05,50,7.00
2021,04,16,05,51,6.90
2021,04,16,05,52,6.90
2021,04,16,05,53,6.90
2021,04,16,05,54,6.90
2021,04,16,05,55,6.90
2021,04,16,05,56,6.90
2021,04,16,05,57,6.80
2021,04,16,05,58,6.80
2021,04,16,05,59,6.80
2021,04,16,06,00,6.80
2021,04,16,06,01,6.80
2021,04,16,06,02,6.70
2021,04,16,06,03,6.70
2021,04,16,06,04,6.70
2021,04,16,06,05,6.70
2021,04,16,06,06,6.70
2021,04,16,06,07,6.60
2021,04,16,06,08,6.60
2021,04,16,06,09,6.60
2021,04,16,06,10,6.60
2021,04,16,06,11,6.60
2021,04,16,06,12,6.50
2021,04,16,06,13,6.50
2021,04,16,06,14,6.50
2021,04,16,06,15,6.50
2021,04,16,06,16,6.40
2021,04,16,06,17,6.40
2021,04,16,06,18,6.40
2021,04,16,06,19,6.40
2021,04,16,06,20,6.40
2021,04,16,06,21,6.30
2021,04,16,06,22,6.30
2021,04,16,06,23,6.30
2021,04,16,06,24,6.30
2021,04,16,06,25,6.30
2021,04,16,06,26,6.30
2021,04,16,06,27,6.30
2021,04,16,06,28,6.30
2021,04,16,06,29,6.30
2021,04,16,06,30,6.20
2021,04,16,06,31,6.20
2021,04,16,06,32,6.20
2021,04,16,06,33,6.20
2021,04,16,06,34,6.30
2021,04,16,06,35,6.30
2021,04,16,06,36,6.30
2021,04,16,06,37,6.30
2021,04,16,06,38,6.30
2021,04,16,06,39,6.30
2021,04,16,06,40,6.30
2021,04,16,06,41,6.30
2021,04,16,06,42,6.30
2021,04,16,06,43,6.30
2021,04,16,06,44,6.30
2021,04,16,06,45,6.30
2021,04,16,06,46,6.30
2021,04,16,06,47,6.30
2021,04,16,06,48,6.30
2021,04,16,06,49,6.30
2021,04,16,06,50,6.30
2021,04,16,06,51,6.30
2021,04,16,06,52,6.40
2021,04,16,06,53,6.40
2021,04,16,06,54,6.40
2021,04,16,06,55,6.40
2021,04,16,06,56,6.50
2021,04,16,06,57,6.50
2021,04,16,06,58,6.50
2021,04,16,06,59,6.50
2021,04,16,07,00,6.50
2021,04,16,07,01,6.50
2021,04,16,07,02,6.60
2021,04,16,07,03,6.60
2021,04,16,07,04,6.60
2021,04,16,07,05,6.60
2021,04,16,07,06,6.60
2021,04,16,07,07,6.70
2021,04,16,07,08,6.70
2021,04,16,07,09,6.80
2021,04,16,07,10,6.80
2021,04,16,07,11,6.80
2021,04,16,07,12,6.90
2021,04,16,07,13,6.90
2021,04,16,07,14,6.90
2021,04,16,07,15,6.90
2021,04,16,07,16,6.90
2021,04,16,07,17,7.00
2021,04,16,07,18,7.00
2021,04,16,07,19,7.10
2021,04,16,07,20,7.10
2021,04,16,07,21,7.20
2021,04,16,07,22,7.20
2021,04,16,07,23,7.30
2021,04,16,07,24,7.40
2021,04,16,07,25,7.50
2021,04,16,07,26,7.60
2021,04,16,07,27,7.70
2021,04,16,07,28,7.80
2021,04,16,07,29,8.00
2021,04,16,07,30,8.10
2021,04,16,07,31,8.20
2021,04,16,07,32,8.30
2021,04,16,07,33,8.40
2021,04,16,07,34,8.50
2021,04,16,07,35,8.60
2021,04,16,07,36,8.70
2021,04,16,07,37,8.80
2021,04,16,07,38,8.90
2021,04,16,07,39,9.10
2021,04,16,07,40,9.20
2021,04,16,07,41,9.30
2021,04,16,07,42,9.50
2021,04,16,07,43,9.60
2021,04,16,07,44,9.80
2021,04,16,07,45,9.90
2021,04,16,07,46,10.00
2021,04,16,07,47,10.20
2021,04,16,07,48,10.30
2021,04,16,07,49,10.50
2021,04,16,07,50,10.60
2021,04,16,07,51,10.80
2021,04,16,07,52,10.90
2021,04,16,07,53,11.00
2021,04,16,07,54,11.10
2021,04,16,07,55,11.20
2021,04,16,07,56,11.30
2021,04,16,07,57,11.40
2021,04,16,07,58,11.50
2021,04,16,07,59,11.60
2021,04,16,08,00,11.70
2021,04,16,08,01,11.70
2021,04,16,08,02,11.80
2021,04,16,08,03,11.90
2021,04,16,08,04,12.00
2021,04,16,08,05,12.00
2021,04,16,08,06,12.10
2021,04,16,08,07,12.20
2021,04,16,08,08,12.30
2021,04,16,08,09,12.30
2021,04,16,08,10,12.40
2021,04,16,08,11,12.60
2021,04,16,08,12,12.70
2021,04,16,08,13,12.80
2021,04,16,08,14,12.80
2021,04,16,08,15,13.00
2021,04,16,08,16,13.10
2021,04,16,08,17,13.20
2021,04,16,08,18,13.30
2021,04,16,08,19,13.40
2021,04,16,08,20,13.50
2021,04,16,08,21,13.70
2021,04,16,08,22,13.80
2021,04,16,08,23,13.90
2021,04,16,08,24,14.00
2021,04,16,08,25,14.00
2021,04,16,08,26,14.10
2021,04,16,08,27,14.20
2021,04,16,08,28,14.20
2021,04,16,08,29,14.30
2021,04,16,08,30,14.40
2021,04,16,08,31,14.40
2021,04,16,08,32,14.40
2021,04,16,08,33,14.50
2021,04,16,08,34,14.50
2021,04,16,08,35,14.50
2021,04,16,08,36,14.60
2021,04,16,08,37,14.70
2021,04,16,08,38,14.70
2021,04,16,08,39,14.80
2021,04,16,08,40,14.80
2021,04,16,08,41,14.80
2021,04,16,08,42,14.90
2021,04,16,08,43,15.00
2021,04,16,08,44,15.10
2021,04,16,08,45,15.10
2021,04,16,08,46,15.20
2021,04,16,08,47,15.20
2021,04,16,08,48,15.30
2021,04,16,08,49,15.30
2021,04,16,08,50,15.30
2021,04,16,08,51,15.30
2021,04,16,08,52,15.40
2021,04,16,08,53,15.40
2021,04,16,08,54,15.40
2021,04,16,08,55,15.40
2021,04,16,08,56,15.40
2021,04,16,08,57,15.40
2021,04,16,08,58,15.40
2021,04,16,08,59,15.30
2021,04,16,09,00,15.40
2021,04,16,09,01,15.40
2021,04,16,09,02,15.50
2021,04,16,09,03,15.50
2021,04,16,09,04,15.60
2021,04,16,09,05,15.70
2021,04,16,09,06,15.80
2021,04,16,09,07,15.80
2021,04,16,09,08,15.90
2021,04,16,09,09,16.00
2021,04,16,09,10,16.10
2021,04,16,09,11,16.10
2021,04,16,09,12,16.20
2021,04,16,09,13,16.20
2021,04,16,09,14,16.20
2021,04,16,09,15,16.30
2021,04,16,09,16,16.40
2021,04,16,09,17,16.40
2021,04,16,09,18,16.50
2021,04,16,09,19,16.50
2021,04,16,09,20,16.60
2021,04,16,09,21,16.60
2021,04,16,09,22,16.70
2021,04,16,09,23,16.80
2021,04,16,09,24,16.80
2021,04,16,09,25,16.80
2021,04,16,09,26,16.80
2021,04,16,09,27,16.90
2021,04,16,09,28,16.90
2021,04,16,09,29,16.90
2021,04,16,09,30,17.00
2021,04,16,09,31,17.00
2021,04,16,09,32,17.00
2021,04,16,09,33,17.00
2021,04,16,09,34,17.00
2021,04,16,09,35,17.00
2021,04,16,09,36,17.00
2021,04,16,09,37,17.00
2021,04,16,09,38,16.90
2021,04,16,09,39,16.90
2021,04,16,09,40,16.80
2021,04,16,09,41,16.70
2021,04,16,09,42,16.70
2021,04,16,09,43,16.70
2021,04,16,09,44,16.60
2021,04,16,09,45,16.60
2021,04,16,09,46,16.60
2021,04,16,09,47,16.60
2021,04,16,09,48,16.60
2021,04,16,09,49,16.60
2021,04,16,09,50,16.70
2021,04,16,09,51,16.70
2021,04,16,09,52,16.70
2021,04,16,09,53,16.80
2021,04,16,09,54,16.90
2021,04,16,09,55,16.90
2021,04,16,09,56,17.00
2021,04,16,09,57,17.10
2021,04,16,09,58,17.20
2021,04,16,09,59,17.30
2021,04,16,10,00,17.40
2021,04,16,10,01,17.40
2021,04,16,10,02,17.50
2021,04,16,10,03,17.60
2021,04,16,10,04,17.70
2021,04,16,10,05,17.70
2021,04,16,10,06,17.70
2021,04,16,10,07,17.80
2021,04,16,10,08,17.80
2021,04,16,10,09,17.90
2021,04,16,10,10,17.90
2021,04,16,10,11,17.90
2021,04,16,10,12,18.00
2021,04,16,10,13,18.10
2021,04,16,10,14,18.10
2021,04,16,10,15,18.20
2021,04,16,10,16,18.20
2021,04,16,10,17,18.20
2021,04,16,10,18,18.20
2021,04,16,10,19,18.20
2021,04,16,10,20,18.20
2021,04,16,10,21,18.10
2021,04,16,10,22,18.10
2021,04,16,10,23,18.10
2021,04,16,10,24,18.10
2021,04,16,10,25,18.20
2021,04,16,10,26,18.20
2021,04,16,10,27,18.20
2021,04,16,10,28,18.30
2021,04,16,10,29,18.30
2021,04,16,10,30,18.40
2021,04,16,10,31,18.40
2021,04,16,10,32,18.40
2021,04,16,10,33,18.40
2021,04,16,10,34,18.50
2021,04,16,10,35,18.50
2021,04,16,10,36,18.60
2021,04,16,10,37,18.60
2021,04,16,10,38,18.60
2021,04,16,10,39,18.60
2021,04,16,10,40,18.60
2021,04,16,10,41,18.60
2021,04,16,10,42,18.60
2021,04,16,10,43,18.60
2021,04,16,10,44,18.60
2021,04,16,10,45,18.60
2021,04,16,10,46,18.60
2021,04,16,10,47,18.40
2021,04,16,10,48,18.30
2021,04,16,10,49,18.30
2021,04,16,10,50,18.20
2021,04,16,10,51,18.20
2021,04,16,10,52,18.20
2021,04,16,10,53,18.20
2021,04,16,10,54,18.20
2021,04,16,10,55,18.20
2021,04,16,10,56,18.20
2021,04,16,10,57,18.30
2021,04,16,10,58,18.30
2021,04,16,10,59,18.30
2021,04,16,11,00,18.30
2021,04,16,11,01,18.30
2021,04,16,11,02,18.30
2021,04,16,11,03,18.30
2021,04,16,11,04,18.30
2021,04,16,11,05,18.30
2021,04,16,11,06,18.30
2021,04,16,11,07,18.30
2021,04,16,11,08,18.30
2021,04,16,11,09,18.40
2021,04,16,11,10,18.40
2021,04,16,11,11,18.40
2021,04,16,11,12,18.40
2021,04,16,11,13,18.30
2021,04,16,11,14,18.40
2021,04,16,11,15,18.40
2021,04,16,11,16,18.40
2021,04,16,11,17,18.40
2021,04,16,11,18,18.50
2021,04,16,11,19,18.50
2021,04,16,11,20,18.40
2021,04,16,11,21,18.40
2021,04,16,11,22,18.30
2021,04,16,11,23,18.30
2021,04,16,11,24,18.20
2021,04,16,11,25,18.20
2021,04,16,11,26,18.20
2021,04,16,11,27,18.20
2021,04,16,11,28,18.20
2021,04,16,11,29,18.20
2021,04,16,11,30,18.20
2021,04,16,11,31,18.30
2021,04,16,11,32,18.30
2021,04,16,11,33,18.40
2021,04,16,11,34,18.50
2021,04,16,11,35,18.50
2021,04,16,11,36,18.60
2021,04,16,11,37,18.60
2021,04,16,11,38,18.70
2021,04,16,11,39,18.80
2021,04,16,11,40,18.80
2021,04,16,11,41,18.80
2021,04,16,11,42,18.80
2021,04,16,11,43,18.80
2021,04,16,11,44,18.80
2021,04,16,11,45,18.70
2021,04,16,11,46,18.70
2021,04,16,11,47,18.60
2021,04,16,11,48,18.50
2021,04,16,11,49,18.50
2021,04,16,11,50,18.50
2021,04,16,11,51,18.50
2021,04,16,11,52,18.50
2021,04,16,11,53,18.50
2021,04,16,11,54,18.40
2021,04,16,11,55,18.40
2021,04,16,11,56,18.40
2021,04,16,11,57,18.50
2021,04,16,11,58,18.50
2021,04,16,11,59,18.60
2021,04,16,12,00,18.70
2021,04,16,12,01,18.80
2021,04,16,12,02,18.90
2021,04,16,12,03,18.90
2021,04,16,12,04,19.00
2021,04,16,12,05,19.10
2021,04,16,12,06,19.10
2021,04,16,12,07,19.20
2021,04,16,12,08,19.20
2021,04,16,12,09,19.20
2021,04,16,12,10,19.20
2021,04,16,12,11,19.10
2021,04,16,12,12,19.10
2021,04,16,12,13,19.10
2021,04,16,12,14,19.10
2021,04,16,12,15,19.20
2021,04,16,12,16,19.20
2021,04,16,12,17,19.30
2021,04,16,12,18,19.30
2021,04,16,12,19,19.30
2021,04,16,12,20,19.40
2021,04,16,12,21,19.40
2021,04,16,12,22,19.40
2021,04,16,12,23,19.50
2021,04,16,12,24,19.50
2021,04,16,12,25,19.40
2021,04,16,12,26,19.30
2021,04,16,12,27,19.20
2021,04,16,12,28,19.20
2021,04,16,12,29,19.20
2021,04,16,12,30,19.20
2021,04,16,12,31,19.20
2021,04,16,12,32,19.20
2021,04,16,12,33,19.30
2021,04,16,12,34,19.30
2021,04,16,12,35,19.30
2021,04,16,12,36,19.30
2021,04,16,12,37,19.30
2021,04,16,12,38,19.30
2021,04,16,12,39,19.30
2021,04,16,12,40,19.30
2021,04,16,12,41,19.30
2021,04,16,12,42,19.30
2021,04,16,12,43,19.30
2021,04,16,12,44,19.30
2021,04,16,12,45,19.30
2021,04,16,12,46,19.30
2021,04,16,12,47,19.30
2021,04,16,12,48,19.30
2021,04,16,12,49,19.40
2021,04,16,12,50,19.40
2021,04,16,12,51,19.50
2021,04,16,12,52,19.50
2021,04,16,12,53,19.60
2021,04,16,12,54,19.70
2021,04,16,12,55,19.80
2021,04,16,12,56,19.80
2021,04,16,12,57,19.90
2021,04,16,12,58,20.00
2021,04,16,12,59,20.10
2021,04,16,13,00,20.20
2021,04,16,13,01,20.20
2021,04,16,13,02,20.30
2021,04,16,13,03,20.30
2021,04,16,13,04,20.30
2021,04,16,13,05,20.30
2021,04,16,13,06,20.30
2021,04,16,13,07,20.30
2021,04,16,13,08,20.20
2021,04,16,13,09,20.10
2021,04,16,13,10,19.90
2021,04,16,13,11,19.80
2021,04,16,13,12,19.80
2021,04,16,13,13,19.80
2021,04,16,13,14,19.80
2021,04,16,13,15,19.70
2021,04,16,13,16,19.70
2021,04,16,13,17,19.60
2021,04,16,13,18,19.60
2021,04,16,13,19,19.60
2021,04,16,13,20,19.60
2021,04,16,13,21,19.60
2021,04,16,13,22,19.60
2021,04,16,13,23,19.60
2021,04,16,13,24,19.50
2021,04,16,13,25,19.40
2021,04,16,13,26,19.40
2021,04,16,13,27,19.50
2021,04,16,13,28,19.50
2021,04,16,13,29,19.50
2021,04,16,13,30,19.50
2021,04,16,13,31,19.30
2021,04,16,13,32,19.20
2021,04,16,13,33,19.20
2021,04,16,13,34,19.20
2021,04,16,13,35,19.20
2021,04,16,13,36,19.20
2021,04,16,13,37,19.30
2021,04,16,13,38,19.40
2021,04,16,13,39,19.40
2021,04,16,13,40,19.50
2021,04,16,13,41,19.60
2021,04,16,13,42,19.60
2021,04,16,13,43,19.70
2021,04,16,13,44,19.70
2021,04,16,13,45,19.70
2021,04,16,13,46,19.70
2021,04,16,13,47,19.70
2021,04,16,13,48,19.70
2021,04,16,13,49,19.70
2021,04,16,13,50,19.70
2021,04,16,13,51,19.70
2021,04,16,13,52,19.70
2021,04,16,13,53,19.70
2021,04,16,13,54,19.80
2021,04,16,13,55,19.80
2021,04,16,13,56,19.70
2021,04,16,13,57,19.70
2021,04,16,13,58,19.70
2021,04,16,13,59,19.60
2021,04,16,14,00,19.50
2021,04,16,14,01,19.50
2021,04,16,14,02,19.40
2021,04,16,14,03,19.30
2021,04,16,14,04,19.30
2021,04,16,14,05,19.30
2021,04,16,14,06,19.30
2021,04,16,14,07,19.30
2021,04,16,14,08,19.30
2021,04,16,14,09,19.30
2021,04,16,14,10,19.40
2021,04,16,14,11,19.50
2021,04,16,14,12,19.50
2021,04,16,14,13,19.60
2021,04,16,14,14,19.60
2021,04,16,14,15,19.70
2021,04,16,14,16,19.70
2021,04,16,14,17,19.70
2021,04,16,14,18,19.80
2021,04,16,14,19,19.80
2021,04,16,14,20,19.80
2021,04,16,14,21,19.80
2021,04,16,14,22,19.80
2021,04,16,14,23,19.80
2021,04,16,14,24,19.80
2021,04,16,14,25,19.90
2021,04,16,14,26,19.90
2021,04,16,14,27,20.00
2021,04,16,14,28,20.00
2021,04,16,14,29,20.10
2021,04,16,14,30,20.20
2021,04,16,14,31,20.20
2021,04,16,14,32,20.20
2021,04,16,14,33,20.20
2021,04,16,14,34,20.20
2021,04,16,14,35,20.20
2021,04,16,14,36,20.20
2021,04,16,14,37,20.30
2021,04,16,14,38,20.20
2021,04,16,14,39,20.20
2021,04,16,14,40,20.30
2021,04,16,14,41,20.30
2021,04,16,14,42,20.30
2021,04,16,14,43,20.30
2021,04,16,14,44,20.30
2021,04,16,14,45,20.30
2021,04,16,14,46,20.30
2021,04,16,14,47,20.30
2021,04,16,14,48,20.30
2021,04,16,14,49,20.30
2021,04,16,14,50,20.30
2021,04,16,14,51,20.30
2021,04,16,14,52,20.30
2021,04,16,14,53,20.30
2021,04,16,14,54,20.30
2021,04,16,14,55,20.30
2021,04,16,14,56,20.30
2021,04,16,14,57,20.30
2021,04,16,14,58,20.30
2021,04,16,14,59,20.30
2021,04,16,15,00,20.30
2021,04,16,15,01,20.30
2021,04,16,15,02,20.40
2021,04,16,15,03,20.50
2021,04,16,15,04,20.60
2021,04,16,15,05,20.70
2021,04,16,15,06,20.90
2021,04,16,15,07,21.00
2021,04,16,15,08,21.00
2021,04,16,15,09,21.10
2021,04,16,15,10,21.20
2021,04,16,15,11,21.30
2021,04,16,15,12,21.30
2021,04,16,15,13,21.30
2021,04,16,15,14,21.40
2021,04,16,15,15,21.40
2021,04,16,15,16,21.40
2021,04,16,15,17,21.40
2021,04,16,15,18,21.50
2021,04,16,15,19,21.50
2021,04,16,15,20,21.60
2021,04,16,15,21,21.70
2021,04,16,15,22,21.70
2021,04,16,15,23,21.80
2021,04,16,15,24,21.80
2021,04,16,15,25,21.80
2021,04,16,15,26,21.80
2021,04,16,15,27,21.80
2021,04,16,15,28,21.80
2021,04,16,15,29,21.90
2021,04,16,15,30,21.90
2021,04,16,15,31,21.90
2021,04,16,15,32,21.90
2021,04,16,15,33,21.90
2021,04,16,15,34,21.90
2021,04,16,15,35,21.90
2021,04,16,15,36,22.00
2021,04,16,15,37,22.00
2021,04,16,15,38,22.00
2021,04,16,15,39,22.00
2021,04,16,15,40,22.00
2021,04,16,15,41,22.10
2021,04,16,15,42,22.10
2021,04,16,15,43,22.00
2021,04,16,15,44,22.00
2021,04,16,15,45,22.00
2021,04,16,15,46,22.10
2021,04,16,15,47,22.10
2021,04,16,15,48,22.10
2021,04,16,15,49,22.10
2021,04,16,15,50,22.10
2021,04,16,15,51,22.00
2021,04,16,15,52,22.00
2021,04,16,15,53,22.00
2021,04,16,15,54,22.00
2021,04,16,15,55,22.00
2021,04,16,15,56,22.10
2021,04,16,15,57,22.10
2021,04,16,15,58,22.10
2021,04,16,15,59,22.20
2021,04,16,16,00,22.20
2021,04,16,16,01,22.20
2021,04,16,16,02,22.30
2021,04,16,16,03,22.30
2021,04,16,16,04,22.30
2021,04,16,16,05,22.40
2021,04,16,16,06,22.40
2021,04,16,16,07,22.50
2021,04,16,16,08,22.50
2021,04,16,16,09,22.60
2021,04,16,16,10,22.60
2021,04,16,16,11,22.70
2021,04,16,16,12,22.60
2021,04,16,16,13,22.60
2021,04,16,16,14,22.50
2021,04,16,16,15,22.40
2021,04,16,16,16,22.40
2021,04,16,16,17,22.40
2021,04,16,16,18,22.40
2021,04,16,16,19,22.30
2021,04,16,16,20,22.30
2021,04,16,16,21,22.30
2021,04,16,16,22,22.20
2021,04,16,16,23,22.20
2021,04,16,16,24,22.20
2021,04,16,16,25,22.30
2021,04,16,16,26,22.30
2021,04,16,16,27,22.30
2021,04,16,16,28,22.30
2021,04,16,16,29,22.30
2021,04,16,16,30,22.30
2021,04,16,16,31,22.30
2021,04,16,16,32,22.40
2021,04,16,16,33,22.40
2021,04,16,16,34,22.50
2021,04,16,16,35,22.50
2021,04,16,16,36,22.60
2021,04,16,16,37,22.60
2021,04,16,16,38,22.60
2021,04,16,16,39,22.60
2021,04,16,16,40,22.70
2021,04,16,16,41,22.60
2021,04,16,16,42,22.60
2021,04,16,16,43,22.60
2021,04,16,16,44,22.60
2021,04,16,16,45,22.60
2021,04,16,16,46,22.60
2021,04,16,16,47,22.60
2021,04,16,16,48,22.60
2021,04,16,16,49,22.60
2021,04,16,16,50,22.60
2021,04,16,16,51,22.50
2021,04,16,16,52,22.50
2021,04,16,16,53,22.50
2021,04,16,16,54,22.50
2021,04,16,16,55,22.50
2021,04,16,16,56,22.50
2021,04,16,16,57,22.50
2021,04,16,16,58,22.50
2021,04,16,16,59,22.50
2021,04,16,17,00,22.60
2021,04,16,17,01,22.60
2021,04,16,17,02,22.60
2021,04,16,17,03,22.70
2021,04,16,17,04,22.70
2021,04,16,17,05,22.70
2021,04,16,17,06,22.70
2021,04,16,17,07,22.70
2021,04,16,17,08,22.70
2021,04,16,17,09,22.80
2021,04,16,17,10,22.80
2021,04,16,17,11,22.80
2021,04,16,17,12,22.80
2021,04,16,17,13,22.80
2021,04,16,17,14,22.70
2021,04,16,17,15,22.70
2021,04,16,17,16,22.60
2021,04,16,17,17,22.60
2021,04,16,17,18,22.50
2021,04,16,17,19,22.40
2021,04,16,17,20,22.30
2021,04,16,17,21,22.20
2021,04,16,17,22,22.10
2021,04,16,17,23,22.00
2021,04,16,17,24,22.00
2021,04,16,17,25,21.90
2021,04,16,17,26,21.80
2021,04,16,17,27,21.70
2021,04,16,17,28,21.60
2021,04,16,17,29,21.40
2021,04,16,17,30,21.30
2021,04,16,17,31,21.20
2021,04,16,17,32,21.00
2021,04,16,17,33,20.90
2021,04,16,17,34,20.80
2021,04,16,17,35,20.60
2021,04,16,17,36,20.50
2021,04,16,17,37,20.40
2021,04,16,17,38,20.40
2021,04,16,17,39,20.30